AirNav   Air Wisconsin pilot careers
 
 353 users online  

55S Packwood Airport
Packwood, Washington, USA

GOING TO PACKWOOD?


FAA INFORMATION EFFECTIVE 16 AUGUST 2018

Location

FAA Identifier: 55S
Lat/Long: 46-36-14.9840N / 121-40-40.4390W
46-36.249733N / 121-40.673983W
46.6041622 / -121.6778997
(estimated)
Elevation: 1057 ft. / 322 m (estimated)
Variation: 20E (1985)
Time zone: UTC -7 (UTC -8 during Standard Time)
Zip code: 98361

Airport Operations

Airport use: Open to the public
Activation date: 09/1948
Control tower: no
ARTCC: SEATTLE CENTER
FSS: SEATTLE FLIGHT SERVICE STATION
NOTAMs facility: SEA (NOTAM-D service available)
Attendance: UNATNDD
Wind indicator: lighted
Segmented circle: no
Lights: ACTVT MIRL RWY 01/19 - CTAF.
Beacon: white-green (lighted land airport)
ACTVT BCN - CTAF-122.9.

Airport Communications

CTAF: 122.9

Airport Services

Parking: tiedowns
Airframe service: NONE
Powerplant service: NONE
Bottled oxygen: NONE
Bulk oxygen: NONE

Runway Information

Runway 1/19

Dimensions: 2356 x 38 ft. / 718 x 12 m
Surface: asphalt, in fair condition
Runway edge lights: medium intensity
Runway edge markings: RY 19 PAINT FADED AND CHIPPED.
Operational restrictions: RY 01/19 SOFT SHOULDERS BOTH SIDES; USE RY FOR BACK TAXI.
RUNWAY 1  RUNWAY 19
Latitude: 46-36.079850N46-36.419595N
Longitude: 121-40.809333W121-40.538632W
Elevation: 1049.0 ft.1057.0 ft.
Traffic pattern: leftleft
Markings: basic, in poor conditionbasic, in poor condition
Touchdown point: yes, no lightsyes, no lights
Obstructions: 5 ft. fence, 200 ft. from runway
RWY 01 +5' FENCE AT 140' AND -5' DITCH AT 155' FROM THR.
40 ft. trees, 200 ft. from runway, 125 ft. right of centerline
+4' FENCE AT 120', 0' PAVED ROAD AT 130' AND 33' TREES 113'-200' FR THR 100'R.

Airport Ownership and Management from official FAA records

Ownership: Publicly-owned
Owner: LEWIS COUNTY
2025 NE KRESKY AVE
CHEHALIS, WA 98532
Phone 360-740-2606
Manager: LARRY MASON
826 CINEBAR ROAD
CINEBAR, WA 98533-9732
Phone 360-269-6727

Airport Operational Statistics

Aircraft based on the field: 3
Single engine airplanes: 2
Ultralights: 1
    
Aircraft operations: avg 24/day *
80% transient general aviation
17% local general aviation
3% military
* for 12-month period ending 31 July 2015

Additional Remarks

TREES AND BLDGS IN TRANSITIONAL SURFACES.
TREES & FENCES IN PRIM SFC.

Instrument Procedures

There are no published instrument procedures at 55S.

Some nearby airports with instrument procedures:

KPLU - Pierce County Airport - Thun Field (39 nm NW)
KTCM - McChord Field Airport (Joint Base Lewis-McChord) (46 nm NW)
KGRF - Gray Army Airfield (Joint Base Lewis-McChord) (47 nm NW)
KYKM - Yakima Air Terminal/McAllister Field (47 nm E)
KTDO - Ed Carlson Memorial Field - South Lewis Co Airport (47 nm W)
 
Loc | Ops | Rwys | IFR | FBO | Links
Com | Nav | Svcs | Stats | Notes


 
Area around 55S (Packwood Airport)
 
Road maps at: MapQuest Bing Google
 
Aerial photo
WARNING: Photo may not be current or correct
Aerial photo of 55S (Packwood Airport)
Photo taken 22-Feb-2015
looking southeast.

Do you have a better or more recent aerial photo of Packwood Airport that you would like to share? If so, please send us your photo.

 
Sectional chart

 
Airport distance calculator
Flying to Packwood Airport? Find the distance to fly.

From to 55S

Sunrise and sunset
Times for 19-Aug-2018
 Local
(UTC-7)
 Zulu
(UTC)
Morning civil twilight05:3812:38
Sunrise06:1113:11
Sunset20:0903:09
Evening civil twilight20:4203:42

Current date and time
Zulu (UTC)  19-Aug-2018 10:14:44
Local (UTC-7)  19-Aug-2018 03:14:44
 
METAR
KPLU 
39nm NW 
190955Z AUTO 00000KT 10SM OVC040 14/12 A3010 RMK AO2
KSMP 
43nm N 
190856Z AUTO 24004KT 10SM OVC037 16/11 A3020 RMK AO2 SLP196 T01560106 58006
KTCM 
45nm NW 
190958Z AUTO 19003KT 10SM CLR 13/12 A3009 RMK AO2 SLP192 T01250122 $
KGRF 
46nm NW 
190958Z AUTO 00000KT 10SM CLR 14/12 A3009 RMK AO2 SLP192 T01380118 $
KYKM 
47nm E 
190953Z AUTO 26007KT 7SM CLR 15/08 A3004 RMK AO2 SLP164 T01500083
TAF
KTCM 
45nm NW 
190504Z 1905/2011 03009KT 9999 FEW100 QNH3010INS BECMG 1917/1918 01009KT 9999 SKC QNH3007INS BECMG 2003/2004 03009KT 8000 FU SKC QNH3000INS TX29/1923Z TN14/1912Z
KGRF 
46nm NW 
190503Z 1905/2011 03009KT 9999 FEW100 QNH3010INS BECMG 1917/1918 33009KT 9999 SKC QNH3007INS BECMG 2003/2004 03009KT 9999 SKC QNH3000INS TX27/1923Z TN14/1912Z
KYKM 
47nm E 
190520Z 1906/2006 28006KT P6SM SKC FM190800 28008KT 5SM HZ FU SKC FM192100 06005KT 5SM HZ FU FEW120 FM200300 31006KT 4SM HZ FU SCT120
NOTAMs
Click for the latest NOTAMs
NOTAMs are issued by the DoD/FAA and will open in a separate window not controlled by AirNav.

 

 
 

Would you like to see your business listed on this page?

 If your business provides an interesting product or service to pilots, flight crews, aircraft, or users of the Packwood Airport, you should consider listing it here.  To start the listing process, click on the button below
 
Add a business
 

Other Pages about Packwood Airport

Update a link
 
Copyright © AirNav, LLC. All rights reserved. Privacy Policy  Contact